Regional Weather Roundup
Issued by NWS Newport/Morehead, NC

Current Version | Previous Version | Graphics & Text | Print | Product List | Glossary Off
Versions: 1 2 3 4 5 6 7 8 9 10 11 12 13 14 15 16 17 18 19 20 21 22 23 24 25 26 27 28 29 30 31 32 33 34 35 36 37 38 39 40 41 42 43 44 45 46 47 48 49 50

000
ASUS42 KMHX 201225
RWRMHX
WEATHER ROUNDUP FOR EASTERN NORTH CAROLINA
NATIONAL WEATHER SERVICE NEWPORT/MOREHEAD CITY NC
800 AM EDT FRI APR 20 2018

NOTE: "FAIR" INDICATES FEW OR NO CLOUDS BELOW 12,000 FEET
WITH NO SIGNIFICANT WEATHER AND/OR OBSTRUCTIONS TO VISIBILITY

NCZ015>017-031-032-045>047-102-103-201300-
NORTH COAST

CITY           SKY/WX    TMP DP  RH WIND       PRES   REMARKS
EDENTON        FAIR      48  35  59 NW7       30.31R
ELIZABETH CITY FAIR      44  35  70 W7        30.29R
KITTY HAWK     FAIR      46  29  50 NW5       30.27R
MANTEO         FAIR      47  28  47 N9G18     30.29R

$$

NCZ045>047-081-094-103-104-201300-
CENTRAL COAST

CITY           SKY/WX    TMP DP  RH WIND       PRES   REMARKS
FRISCO         FAIR      51  32  48 N8G24     30.27R

$$

NCZ095-097-098-100-101-201300-
SOUTHERN COAST

CITY           SKY/WX    TMP DP  RH WIND       PRES   REMARKS
BEAUFORT       FAIR      49  30  48 N8        30.30R
CEDAR ISLAND   NOT AVBL
JACKSONVILLE   FAIR      47  34  60 N5        30.32R
PINEY ISLAND   NOT AVBL
WILMINGTON     FAIR      46  33  60 N8        30.33R


$$

NCZ011>013-027>030-043-044-078>080-089-090>093-098-201300-
COASTAL PLAIN

CITY           SKY/WX    TMP DP  RH WIND       PRES   REMARKS
AHOSKIE        FAIR      43  31  62 N7        30.32R
CLINTON        FAIR      45  33  63 CALM      30.35R
ELIZABETHTOWN  FAIR      43  32  65 MISG      30.34R
GOLDSBORO      FAIR      46  33  59 NW5       30.32R
GREENVILLE     FAIR      46  32  57 NW3       30.33R
HAVELOCK       NOT AVBL
KENANSVILLE    FAIR      43  36  75 N3        30.34R
KINSTON        FAIR      43  34  70 NW5       30.33R
NEW BERN       FAIR      47  36  65 NW3       30.32R
RICHLANDS      FAIR      44  35  70 NW3       30.33R
ROCKY MOUNT    FAIR      42  33  70 NW6       30.32R
WASHINGTON     FAIR      46  34  62 CALM      30.33R
WHITEVILLE     FAIR      45  32  61 N3        30.34R

$$

AMZ130-135-150-152-154-156-158-170-250-252-270-ANZ085-086-088-633-658-670-201300-
MARINE OBSERVATIONS

STATION/POSITION TIME  TEMP    WIND        PRES    WAVE   SWELL
                       AIR SEA DIR/SP/G            HT/PER HT/PER
                 (UTC) (F)     (DEG/KT/KT) (MB)    (FT/S) (FT/S)
CHESAPEAKE LIGHT NOT AVBL
64 E VA BEACH    1150   46 49  330/ 19/ 23 1024.2    6/ 6
DUCK             1200   46 50  320/ 15/ 17 1024.7
2 E DUCK         1200      49                N/A     5/ 6
OREGON INLET     1200   48 57  330/ 12/ 18 1025.3
13E OREGON INLT  1148      52                N/A     7/ 7   5/ 7
HATTERAS CG      1200   50 61   10/ 23/ 26 1025.0
DIAMOND BUOY     1210   52 72  360/ 23/ 29 1025.2
CAPE LOOKOUT     1200           10/ 13/ 15 1026.1
BEAUFORT LAB     1200   49 62   10/  9/ 13 1026.3
30 SE NEW RVR IN 1208   53 65   60/ 17/ 23 1025.8
30 SE NEW RVR IN 1200      65                N/A     6/ 5   2/11
27 SE WRIGHTSVLE 1208   53 65   50/ 23/ 33 1026.5
5 SE WRIGHTSVLE  1208   51 60   30/ 16/ 21 1025.8
225 S CAPE HAT   1210   67 71   50/ 19/ 25 1020.3
41 SE CHARLESTON 1210   57 67   40/ 23/ 29 1024.4

$$




USA.gov is the U.S. government's official web portal to all federal, state and local government web resources and services.